VA3PPY Weather Reports


Display with metric or nautical units.
time (UTC)temp
F
wind
direction
speed
MPH
gust
MPH
rain 1hr
in
rain 24hr
in
rain mn
in
humidity
%
barometer
mb
20260901044559 72 156 2.0 8.0 0.00 0.62 0.00 87 1012.1
20260901043102 72 156 3.0 7.0 0.00 0.62 0.00 88 1012.0
20260901041609 72 158 0.0 6.0 0.00 0.62 0.00 89 1012.1
20260901040121 72 151 2.0 6.0 0.00 0.62 0.00 88 1012.2
20260901040002 72 151 1.0 6.0 0.00 0.62 0.00 88 1012.1
20260901034600 72 164 1.0 7.0 0.00 0.62 0.62 88 1012.2
20260901033115 72 176 1.0 10.0 0.00 0.62 0.62 88 1012.3
20260901031612 72 157 3.0 7.0 0.00 0.62 0.62 89 1012.6
20260901024601 72 151 1.0 6.0 0.00 0.62 0.62 91 1012.7
20260901023101 72 165 1.0 7.0 0.00 0.62 0.62 92 1012.7
20260901021600 72 169 0.0 2.0 0.00 0.62 0.62 92 1012.6
20260901014601 72 139 0.0 4.0 0.00 0.62 0.62 93 1012.4
20260901013107 72 92 0.0 2.0 0.00 0.62 0.62 94 1012.4
20260901011602 72 191 0.0 3.0 0.00 0.62 0.62 94 1012.4
20260901010101 72 121 0.0 7.0 0.00 0.62 0.62 94 1012.4
20260901004601 72 97 0.0 3.0 0.00 0.66 0.62 95 1012.3
20260901003105 72 49 0.0 4.0 0.00 0.66 0.62 95 1012.3
20260901001500 72 120 0.0 2.0 0.00 0.66 0.62 95 1012.6
20260901000002 72 120 0.0 2.0 0.00 0.66 0.62 94 1012.7
20260831234500 72 120 0.0 3.0 0.00 0.70 0.62 94 1012.8
20260831233000 73 120 0.0 2.0 0.00 0.70 0.62 95 1013.1
20260831231501 73 120 0.0 2.0 0.00 0.70 0.62 95 1013.2
20260831230000 73 120 0.0 1.0 0.00 0.70 0.62 95 1013.2
20260831224501 73 160 0.0 3.0 0.00 0.73 0.62 95 1013.0
20260831223001 73 126 0.0 1.0 0.00 0.73 0.62 95 1013.3
20260831221504 73 126 0.0 4.0 0.00 0.73 0.62 95 1013.0
20260831220001 73 126 1.0 5.0 0.00 0.73 0.62 94 1013.4
20260831214501 73 77 0.0 0.0 0.00 0.74 0.62 94 1013.3
20260831213003 73 77 0.0 0.0 0.00 0.74 0.62 94 1013.2
20260831211502 73 77 0.0 3.0 0.00 0.74 0.62 94 1013.4
20260831210003 74 77 0.0 5.0 0.00 0.74 0.62 95 1013.4
20260831204502 74 101 0.0 4.0 0.00 0.77 0.62 96 1013.2
20260831203002 73 150 1.0 3.0 0.00 0.77 0.62 96 1012.9
20260831201502 72 150 0.0 2.0 0.00 0.77 0.62 96 1013.4
20260831200002 72 150 0.0 2.0 0.01 0.77 0.62 96 1013.6
20260831194502 72 150 0.0 1.0 0.01 0.85 0.62 96 1014.0
20260831193001 72 150 0.0 1.0 0.02 0.85 0.62 95 1013.9
20260831191502 72 150 0.0 5.0 0.03 0.85 0.62 96 1014.0
20260831190002 72 152 3.0 7.0 0.02 0.84 0.61 95 1014.1
20260831184502 73 158 0.0 0.0 0.02 0.93 0.61 95 1015.1
20260831183002 73 158 0.0 0.0 0.01 0.92 0.60 95 1015.5
20260831181502 73 158 0.0 2.0 0.00 0.91 0.59 94 1015.6
20260831180002 73 158 0.0 2.0 0.01 0.91 0.59 95 1015.6
20260831174502 74 158 0.0 0.0 0.01 0.96 0.59 96 1015.7
20260831173002 73 158 0.0 0.0 0.02 0.96 0.59 96 1015.3
20260831171504 71 158 0.0 0.0 0.02 0.96 0.59 96 1015.4
20260831170003 71 158 0.0 0.0 0.03 0.95 0.57 96 1015.9
20260831164502 71 158 0.0 0.0 0.04 1.11 0.57 96 1016.1
20260831163002 71 158 0.0 0.0 0.03 1.10 0.56 96 1016.2
20260831161502 71 158 0.0 2.0 0.08 1.10 0.56 96 1016.6
20260831160004 71 158 0.0 0.0 0.22 1.08 0.55 96 1016.8
20260831154502 71 158 0.0 0.0 0.22 1.26 0.54 96 1016.7
20260831153005 71 158 0.0 0.0 0.23 1.26 0.54 95 1016.2
20260831151507 72 158 1.0 4.0 0.17 1.20 0.48 95 1015.8
20260831150003 73 159 0.0 0.0 0.02 1.05 0.33 95 1015.6
20260831144509 74 159 0.0 0.0 0.00 1.07 0.31 95 1015.4
20260831143003 73 159 0.0 2.0 0.00 1.07 0.31 96 1015.1
20260831141507 73 160 0.0 3.0 0.00 1.07 0.31 96 1015.0
20260831140003 72 160 2.0 5.0 0.00 1.07 0.31 97 1015.1
20260831134503 72 176 0.0 4.0 0.00 1.09 0.31 97 1015.0
20260831133003 71 176 0.0 2.0 0.00 1.09 0.31 97 1014.6
20260831131505 71 176 0.0 1.0 0.00 1.09 0.31 97 1014.5
20260831130004 70 176 0.0 0.0 0.01 1.09 0.31 97 1014.7
20260831124503 69 176 0.0 1.0 0.02 1.19 0.31 97 1014.7
20260831123003 69 176 0.0 1.0 0.05 1.19 0.31 97 1014.8
20260831121507 69 176 0.0 2.0 0.05 1.19 0.31 97 1014.4
20260831120003 68 176 0.0 4.0 0.05 1.18 0.30 97 1014.4
20260831114503 68 164 0.0 5.0 0.10 1.19 0.28 97 1015.1
20260831113004 68 164 0.0 0.0 0.12 1.15 0.26 97 1015.4
20260831111511 68 164 0.0 0.0 0.15 1.15 0.26 97 1015.4
20260831110005 68 164 0.0 0.0 0.14 1.14 0.25 97 1015.5
20260831104503 68 164 0.0 0.0 0.08 1.09 0.19 97 1015.4
20260831103004 68 164 0.0 0.0 0.03 1.03 0.13 97 1015.3
20260831101504 68 164 0.0 1.0 0.01 1.01 0.11 97 1015.1
20260831100008 68 164 0.0 1.0 0.01 1.01 0.11 96 1015.0
20260831094508 68 164 0.0 0.0 0.02 1.01 0.11 96 1015.0
20260831093005 68 164 0.0 0.0 0.01 1.00 0.10 96 1014.9
20260831091504 68 164 0.0 0.0 0.01 1.00 0.10 96 1015.0
20260831090005 68 164 0.0 0.0 0.01 1.00 0.10 96 1014.8
20260831084504 68 164 0.0 0.0 0.00 0.99 0.09 96 1015.1
20260831083015 68 164 0.0 1.0 0.00 0.99 0.09 96 1014.9
20260831081504 68 164 0.0 1.0 0.00 0.99 0.09 96 1014.7
20260831080017 68 164 0.0 2.0 0.00 0.99 0.09 96 1014.8
20260831074504 68 164 0.0 1.0 0.00 0.99 0.09 96 1014.8
20260831073016 68 164 0.0 1.0 0.01 0.99 0.09 96 1014.9
20260831071504 68 164 0.0 2.0 0.02 0.99 0.09 96 1015.2
20260831070005 68 164 0.0 1.0 0.03 0.99 0.09 96 1015.3
20260831064505 67 164 0.0 4.0 0.05 0.99 0.09 96 1015.3
20260831063005 67 164 0.0 1.0 0.08 0.98 0.08 95 1015.3
20260831061505 67 164 0.0 4.0 0.07 0.97 0.07 95 1015.4
20260831060004 67 138 1.0 7.0 0.06 0.96 0.06 95 1015.6
20260831054505 66 169 0.0 2.0 0.04 0.94 0.04 95 1015.7
20260831053008 66 169 0.0 3.0 0.00 0.90 0.00 94 1015.7
20260831051510 66 169 0.0 5.0 0.00 0.90 0.00 94 1015.6
20260831050005 66 188 0.0 6.0 0.00 0.90 0.00 94 1015.7